Retour au catalogue

AIRSAT-07

ActifSciencePO
NORAD 63298·PAYLOAD·🇨🇳 China
Ce nom de satellite n'a pas encore été confirmé par des sources officielles.

Lancé Mar 17, 2025 depuis Jiuquan Satellite Launch Center

Loading…

Prochains Passages (prochaines 24 heures)

TLE

FraisSource: Space-Track

Époque: Sep 14, 2026, 13:23 UTC

1 63298U 25055H   26257.55814395  .00051862  00000-0  10410-2 0  9997
2 63298  97.6642  48.5533 0005080 182.0771 178.0458 15.46501943 83227

Suivez AIRSAT-07 en temps réel avec AllMySat

Download on the App Store